[TLELIST] Archives

 

[TLELIST] Current TLEs

October 20th 2023 PST

HST 1 20580U 90037B 23292.94033051 .00007456 00000-0 38409-3 0 9996 2 20580 28.4676 157.2290 0002492 298.2698 181.3657 15.14513453640381 ISS (ZARYA) 1 25544U 98067A 23293.41011616 .00007376 00000-0 13963-3 0 9997 2 25544 51.6451 68.2683 0000968 50.3812 3.8163 15.49465518421218 CXO 1 25867U 99040B 23294.88112626 .00001142 00000-0 00000-0 0 9992 2 25867 37.4495 180.7575 9037888 275.5671 0.4866 0.37814151 13650 ...Continue Reading

[TLELIST] Current TLEs

October 19th 2023 PST

HST 1 20580U 90037B 23291.95130855 .00007066 00000-0 36366-3 0 9993 2 20580 28.4678 163.8229 0002457 286.5234 190.0091 15.14500616640235 ISS (ZARYA) 1 25544U 98067A 23292.37849780 .00018002 00000-0 32918-3 0 9991 2 25544 51.6429 73.3797 0001416 108.6154 307.3893 15.49430853421059 CXO 1 25867U 99040B 23294.88112626 .00001142 00000-0 00000+0 0 9991 2 25867 37.4495 180.7575 9037888 275.5671 0.4866 0.37814151 24810 ...Continue Reading

[TLELIST] Current TLEs

October 18th 2023 PST

HST 1 20580U 90037B 23290.37868112 .00006305 00000-0 32360-3 0 9997 2 20580 28.4682 174.3075 0002412 267.6171 257.6224 15.14480754639996 ISS (ZARYA) 1 25544U 98067A 23291.40629809 .00018869 00000-0 33355-3 0 9999 2 25544 51.6418 78.1860 0004512 109.4274 277.5521 15.50354969420907 CXO 1 25867U 99040B 23292.23865321 .00001138 00000-0 00000-0 0 9991 2 25867 37.4345 181.0593 9038522 275.3294 0.6577 0.37815948 13648 ...Continue Reading

[TLELIST] Current TLEs

October 18th 2023 PST

HST 1 20580U 90037B 23290.37868112 .00006305 00000-0 32360-3 0 9997 2 20580 28.4682 174.3075 0002412 267.6171 257.6224 15.14480754639996 ISS (ZARYA) 1 25544U 98067A 23291.40629809 .00018869 00000-0 33355-3 0 9999 2 25544 51.6418 78.1860 0004512 109.4274 277.5521 15.50354969420907 CXO 1 25867U 99040B 23292.23865321 .00001138 00000-0 00000-0 0 9991 2 25867 37.4345 181.0593 9038522 275.3294 0.6577 0.37815948 13648 ...Continue Reading

[TLELIST] Current TLEs

October 18th 2023 PST

HST 1 20580U 90037B 23290.37868112 .00006305 00000-0 32360-3 0 9997 2 20580 28.4682 174.3075 0002412 267.6171 257.6224 15.14480754639996 ISS (ZARYA) 1 25544U 98067A 23291.40629809 .00018869 00000-0 33355-3 0 9999 2 25544 51.6418 78.1860 0004512 109.4274 277.5521 15.50354969420907 CXO 1 25867U 99040B 23292.23865321 .00001138 00000-0 00000-0 0 9991 2 25867 37.4345 181.0593 9038522 275.3294 0.6577 0.37815948 13648 ...Continue Reading

[TLELIST] Current TLEs

October 17th 2023 PST

HST 1 20580U 90037B 23289.97323681 .00006789 00000-0 34925-3 0 9993 2 20580 28.4685 177.0104 0002415 262.3981 207.9072 15.14476286640194 ISS (ZARYA) 1 25544U 98067A 23290.31856001 .00019342 00000-0 34217-3 0 9999 2 25544 51.6415 83.5768 0004678 110.7075 321.3815 15.50314567420733 CXO 1 25867U 99040B 23292.23865321 .00001138 00000-0 00000-0 0 9991 2 25867 37.4345 181.0593 9038522 275.3294 0.6577 0.37815948 13648 ...Continue Reading

[TLELIST] Current TLEs

October 16th 2023 PST

HST 1 20580U 90037B 23288.77520193 .00007218 00000-0 37209-3 0 9993 2 20580 28.4685 184.9966 0002400 247.9603 157.5506 15.14461064639751 ISS (ZARYA) 1 25544U 98067A 23289.35247315 .00021362 00000-0 37739-3 0 9990 2 25544 51.6422 88.3675 0004766 107.9430 328.8030 15.50282840420584 CXO 1 25867U 99040B 23292.23645940 .00001138 00000-0 00000+0 0 9993 2 25867 37.4345 181.0595 9038519 275.3293 0.3583 0.37815694 24807 ...Continue Reading

[TLELIST] Current TLEs

October 15th 2023 PST

HST 1 20580U 90037B 23287.92512726 .00008212 00000-0 42483-3 0 9997 2 20580 28.4687 190.6630 0002408 237.8707 203.7726 15.14449754639622 ISS (ZARYA) 1 25544U 98067A 23288.38480897 .00022213 00000-0 39262-3 0 9995 2 25544 51.6420 93.1618 0004875 107.0672 325.6388 15.50242686420432 CXO 1 25867U 99040B 23289.59342243 .00001130 00000-0 00000+0 0 9990 2 25867 37.4290 181.3166 9040202 275.1298 0.4601 0.37816627 24795 ...Continue Reading

[TLELIST] Current TLEs

October 14th 2023 PST

HST 1 20580U 90037B 23286.93605553 .00009894 00000-0 51398-3 0 9990 2 20580 28.4687 197.2563 0002423 226.5142 211.9839 15.14435737639470 ISS (ZARYA) 1 25544U 98067A 23287.35265946 .00021274 00000-0 37707-3 0 9995 2 25544 51.6418 98.2768 0004937 104.8433 323.8373 15.50192319420273 CXO 1 25867U 99040B 23289.59342243 .00001130 00000-0 00000+0 0 9990 2 25867 37.4290 181.3166 9040202 275.1298 0.4601 0.37816627 24795 ...Continue Reading

[TLELIST] Current TLEs

October 13th 2023 PST

HST 1 20580U 90037B 23286.15056237 .00008261 00000-0 42775-3 0 9999 2 20580 28.4687 202.4923 0002426 217.8475 249.6635 15.14419725639611 ISS (ZARYA) 1 25544U 98067A 23286.06909813 .00021700 00000-0 38519-3 0 9996 2 25544 51.6420 104.6377 0004928 101.3045 359.6121 15.50137761420071 CXO 1 25867U 99040B 23286.94962252 .00001128 00000-0 00000-0 0 9992 2 25867 37.4219 181.6169 9043275 274.8909 0.4910 0.37818299 13620 ...Continue Reading
  • This mailing list is a public mailing list - anyone may join or leave, at any time.
  • This mailing list is announce-only.

International Space Station (ISS) / Hubble Space Telescope (HST) / Chandra X-Ray Observatory Orbital Data via EMAIL

Privacy Policy:

Private list